GLD1794 SBBG-SGAS

Flight info

Callsign GLD1794
Flight time 1h 16m
Altitude 38000
Route ERVAP UM418 MUKIB/N0455F370 UM402 KONTO/N0457F380 UL531 SAMGU SAMGU
Aircraft A319/M-SDE3FGHIRWY/LB1

Departure

Time 2026-05-07 10:24
Airport Comandante Gustavo Kraemer Airport (SBBG)

Arrival

Time 2026-05-07 11:41
Airport Silvio Pettirossi International Airport (SGAS)
Time Latitude Longitude Altitude Speed Heading
2026-05-07 10:05 -31.38861 -54.11174 589 ft 0 kts 226°
2026-05-07 10:20 -31.38864 -54.11175 596 ft 0 kts 206°
2026-05-07 10:20 -31.38871 -54.11167 597 ft 2 kts 110°
2026-05-07 10:20 -31.38872 -54.11141 598 ft 6 kts 103°
2026-05-07 10:20 -31.38921 -54.11087 595 ft 12 kts 161°
2026-05-07 10:21 -31.38989 -54.11138 596 ft 12 kts 226°
2026-05-07 10:21 -31.39046 -54.11209 597 ft 12 kts 226°
2026-05-07 10:21 -31.39105 -54.11281 596 ft 13 kts 226°
2026-05-07 10:21 -31.39169 -54.11359 596 ft 14 kts 225°
2026-05-07 10:22 -31.39237 -54.11440 596 ft 14 kts 225°
2026-05-07 10:22 -31.39310 -54.11528 594 ft 16 kts 225°
2026-05-07 10:22 -31.39392 -54.11627 593 ft 18 kts 226°
2026-05-07 10:22 -31.39469 -54.11731 593 ft 14 kts 251°
2026-05-07 10:23 -31.39490 -54.11748 593 ft 1 kts 72°
2026-05-07 10:23 -31.39483 -54.11739 593 ft 2 kts 51°
2026-05-07 10:23 -31.39463 -54.11713 593 ft 17 kts 47°
2026-05-07 10:23 -31.39181 -54.11372 596 ft 96 kts 46°
2026-05-07 10:24 -31.38581 -54.10643 743 ft 141 kts 44°
2026-05-07 10:24 -31.37919 -54.09775 1436 ft 145 kts 43°
2026-05-07 10:24 -31.37258 -54.08877 2108 ft 146 kts 39°
2026-05-07 10:24 -31.36608 -54.07901 2626 ft 162 kts 38°
2026-05-07 10:25 -31.35707 -54.07159 2928 ft 161 kts
2026-05-07 10:25 -31.34567 -54.07323 3219 ft 178 kts 331°
2026-05-07 10:25 -31.33608 -54.08400 3658 ft 206 kts 314°
2026-05-07 10:25 -31.32656 -54.09734 4384 ft 218 kts 312°
2026-05-07 10:26 -31.31686 -54.11114 5351 ft 221 kts 311°
2026-05-07 10:26 -31.31035 -54.12043 6013 ft 223 kts 311°
2026-05-07 10:26 -31.29710 -54.13927 7215 ft 229 kts 311°
2026-05-07 10:26 -31.28683 -54.15381 8113 ft 235 kts 310°
2026-05-07 10:27 -31.27632 -54.16866 9042 ft 240 kts 309°
2026-05-07 10:27 -31.26553 -54.18386 9897 ft 247 kts 309°
2026-05-07 10:27 -31.25785 -54.19464 10159 ft 263 kts 309°
2026-05-07 10:27 -31.24562 -54.21182 10483 ft 287 kts 309°
2026-05-07 10:28 -31.23253 -54.23012 10872 ft 305 kts 309°
2026-05-07 10:28 -31.21874 -54.24942 11520 ft 313 kts 309°
2026-05-07 10:28 -31.20467 -54.26918 12185 ft 320 kts 309°
2026-05-07 10:28 -31.19027 -54.28936 12838 ft 326 kts 310°
2026-05-07 10:29 -31.17559 -54.30991 13486 ft 332 kts 310°
2026-05-07 10:29 -31.16065 -54.33076 14063 ft 337 kts 310°
2026-05-07 10:29 -31.14555 -54.35180 14704 ft 340 kts 310°
2026-05-07 10:30 -31.11494 -54.39442 16015 ft 344 kts 309°
2026-05-07 10:30 -31.09946 -54.41598 16689 ft 347 kts 309°
2026-05-07 10:30 -31.08394 -54.43765 17365 ft 349 kts 309°
2026-05-07 10:30 -31.06831 -54.45947 18024 ft 352 kts 309°
2026-05-07 10:31 -31.05254 -54.48145 18604 ft 354 kts 309°
2026-05-07 10:31 -31.03683 -54.50327 19195 ft 357 kts 309°
2026-05-07 10:31 -31.02075 -54.52560 19818 ft 359 kts 309°
2026-05-07 10:31 -31.00463 -54.54799 20412 ft 361 kts 309°
2026-05-07 10:32 -30.98837 -54.57055 20998 ft 365 kts 309°
2026-05-07 10:32 -30.97201 -54.59329 21563 ft 368 kts 309°
2026-05-07 10:32 -30.95547 -54.61627 22110 ft 371 kts 309°
2026-05-07 10:32 -30.93882 -54.63937 22647 ft 374 kts 309°
2026-05-07 10:33 -30.92195 -54.66270 23166 ft 378 kts 308°
2026-05-07 10:33 -30.90494 -54.68622 23618 ft 381 kts 308°
2026-05-07 10:33 -30.88783 -54.70990 24030 ft 384 kts 308°
2026-05-07 10:33 -30.87059 -54.73375 24472 ft 386 kts 308°
2026-05-07 10:34 -30.85330 -54.75766 24951 ft 387 kts 308°
2026-05-07 10:34 -30.83591 -54.78167 25459 ft 387 kts 307°
2026-05-07 10:34 -30.81860 -54.80560 25952 ft 387 kts 307°
2026-05-07 10:34 -30.80121 -54.82963 26416 ft 388 kts 307°
2026-05-07 10:35 -30.78398 -54.85338 26861 ft 389 kts 307°
2026-05-07 10:35 -30.76646 -54.87750 27312 ft 391 kts 307°
2026-05-07 10:35 -30.74888 -54.90165 27743 ft 392 kts 307°
2026-05-07 10:35 -30.73121 -54.92593 28142 ft 393 kts 307°
2026-05-07 10:36 -30.71351 -54.95024 28534 ft 395 kts 306°
2026-05-07 10:36 -30.69576 -54.97466 28924 ft 396 kts 306°
2026-05-07 10:36 -30.67794 -54.99918 29321 ft 398 kts 306°
2026-05-07 10:36 -30.66004 -55.02378 29736 ft 399 kts 306°
2026-05-07 10:37 -30.64210 -55.04842 30069 ft 400 kts 306°
2026-05-07 10:37 -30.62409 -55.07315 30377 ft 401 kts 306°
2026-05-07 10:37 -30.60609 -55.09784 30766 ft 400 kts 306°
2026-05-07 10:37 -30.58814 -55.12239 31224 ft 398 kts 306°
2026-05-07 10:38 -30.57033 -55.14676 31668 ft 395 kts 305°
2026-05-07 10:38 -30.55113 -55.16972 32157 ft 398 kts 313°
2026-05-07 10:38 -30.52820 -55.18823 32640 ft 406 kts 323°
2026-05-07 10:38 -30.50295 -55.20306 33113 ft 406 kts 324°
2026-05-07 10:39 -30.47773 -55.21768 33567 ft 404 kts 324°
2026-05-07 10:39 -30.45260 -55.23226 33978 ft 403 kts 324°
2026-05-07 10:39 -30.42791 -55.24664 34355 ft 401 kts 323°
2026-05-07 10:39 -30.40300 -55.26119 34718 ft 401 kts 323°
2026-05-07 10:40 -30.37811 -55.27571 35060 ft 400 kts 323°
2026-05-07 10:40 -30.35329 -55.29016 35425 ft 399 kts 323°
2026-05-07 10:40 -30.32852 -55.30459 35804 ft 397 kts 322°
2026-05-07 10:40 -30.30386 -55.31895 36148 ft 396 kts 322°
2026-05-07 10:41 -30.27926 -55.33328 36471 ft 395 kts 322°
2026-05-07 10:41 -30.25472 -55.34758 36784 ft 395 kts 322°
2026-05-07 10:41 -30.23021 -55.36186 37091 ft 394 kts 322°
2026-05-07 10:41 -30.20571 -55.37613 37389 ft 394 kts 322°
2026-05-07 10:42 -30.18118 -55.39035 37609 ft 394 kts 322°
2026-05-07 10:42 -30.15671 -55.40454 37692 ft 394 kts 322°
2026-05-07 10:42 -30.10769 -55.43294 37701 ft 393 kts 322°
2026-05-07 10:43 -30.05874 -55.46126 37701 ft 394 kts 322°
2026-05-07 10:43 -30.00976 -55.48950 37700 ft 393 kts 322°
2026-05-07 10:44 -29.96082 -55.51783 37697 ft 393 kts 322°
2026-05-07 10:44 -29.91182 -55.54620 37737 ft 394 kts 321°
2026-05-07 10:45 -29.86283 -55.57436 37729 ft 393 kts 321°
2026-05-07 10:45 -29.81384 -55.60242 37724 ft 393 kts 321°
2026-05-07 10:46 -29.76501 -55.63051 37710 ft 392 kts 321°
2026-05-07 10:46 -29.71629 -55.65858 37714 ft 391 kts 321°
2026-05-07 10:47 -29.66760 -55.68658 37710 ft 391 kts 321°
2026-05-07 10:47 -29.61884 -55.71453 37709 ft 391 kts 321°
2026-05-07 10:48 -29.57018 -55.74240 37670 ft 391 kts 322°
2026-05-07 10:48 -29.52181 -55.77005 37691 ft 390 kts 322°
2026-05-07 10:49 -29.47325 -55.79775 37711 ft 387 kts 321°
2026-05-07 10:49 -29.42528 -55.82506 37704 ft 383 kts 321°
2026-05-07 10:50 -29.37757 -55.85230 37701 ft 383 kts 321°
2026-05-07 10:50 -29.32985 -55.87952 37690 ft 382 kts 322°
2026-05-07 10:51 -29.28233 -55.90655 37707 ft 381 kts 322°
2026-05-07 10:51 -29.23484 -55.93343 37711 ft 380 kts 322°
2026-05-07 10:52 -29.18745 -55.96040 37725 ft 380 kts 322°
2026-05-07 10:52 -29.14007 -55.98730 37722 ft 380 kts 322°
2026-05-07 10:53 -29.09307 -56.01393 37720 ft 380 kts 322°
2026-05-07 10:53 -29.04563 -56.04070 37719 ft 380 kts 322°
2026-05-07 10:54 -28.99834 -56.06750 37718 ft 379 kts 322°
2026-05-07 10:54 -28.95105 -56.09432 37669 ft 380 kts 322°
2026-05-07 10:55 -28.90324 -56.12134 37686 ft 386 kts 322°
2026-05-07 10:55 -28.85481 -56.14862 37698 ft 388 kts 322°
2026-05-07 10:56 -28.80620 -56.17590 37702 ft 390 kts 322°
2026-05-07 10:56 -28.75752 -56.20323 37715 ft 391 kts 322°
2026-05-07 10:57 -28.70903 -56.23046 37710 ft 390 kts 322°
2026-05-07 10:57 -28.66035 -56.25785 37734 ft 390 kts 322°
2026-05-07 10:58 -28.61164 -56.28515 37749 ft 390 kts 322°
2026-05-07 10:58 -28.56286 -56.31244 37757 ft 390 kts 322°
2026-05-07 10:59 -28.51409 -56.33968 37757 ft 390 kts 323°
2026-05-07 10:59 -28.46534 -56.36694 37764 ft 390 kts 322°
2026-05-07 11:00 -28.41669 -56.39414 37774 ft 389 kts 322°
2026-05-07 11:00 -28.36808 -56.42126 37767 ft 389 kts 323°
2026-05-07 11:01 -28.31947 -56.44834 37760 ft 389 kts 323°
2026-05-07 11:01 -28.27092 -56.47539 37771 ft 388 kts 323°
2026-05-07 11:02 -28.22240 -56.50234 37773 ft 388 kts 323°
2026-05-07 11:02 -28.17385 -56.52927 37773 ft 388 kts 323°
2026-05-07 11:03 -28.12573 -56.55602 37771 ft 388 kts 323°
2026-05-07 11:03 -28.07727 -56.58296 37786 ft 388 kts 323°
2026-05-07 11:04 -28.02879 -56.60979 37786 ft 387 kts 323°
2026-05-07 11:04 -27.98039 -56.63647 37786 ft 387 kts 323°
2026-05-07 11:05 -27.93194 -56.66322 37785 ft 386 kts 323°
2026-05-07 11:05 -27.88392 -56.68981 37785 ft 386 kts 323°
2026-05-07 11:06 -27.83565 -56.71649 37797 ft 386 kts 323°
2026-05-07 11:06 -27.78739 -56.74305 37790 ft 385 kts 323°
2026-05-07 11:07 -27.73918 -56.76951 37788 ft 385 kts 323°
2026-05-07 11:07 -27.69102 -56.79605 37786 ft 385 kts 323°
2026-05-07 11:08 -27.64283 -56.82257 37772 ft 385 kts 323°
2026-05-07 11:08 -27.59503 -56.84884 37794 ft 385 kts 323°
2026-05-07 11:09 -27.54687 -56.87523 37795 ft 384 kts 323°
2026-05-07 11:09 -27.49881 -56.90154 37794 ft 383 kts 323°
2026-05-07 11:10 -27.45889 -56.92339 37798 ft 383 kts 323°
2026-05-07 11:10 -27.41100 -56.94957 37771 ft 382 kts 323°
2026-05-07 11:11 -27.36316 -56.97570 37775 ft 382 kts 323°
2026-05-07 11:11 -27.31529 -57.00189 37777 ft 382 kts 323°
2026-05-07 11:12 -27.26734 -57.02802 37778 ft 383 kts 323°
2026-05-07 11:12 -27.21942 -57.05408 37741 ft 383 kts 324°
2026-05-07 11:13 -27.17154 -57.08016 37756 ft 382 kts 324°
2026-05-07 11:13 -27.12396 -57.10604 37768 ft 382 kts 324°
2026-05-07 11:14 -27.07600 -57.13212 37805 ft 383 kts 323°
2026-05-07 11:14 -27.02808 -57.15814 37802 ft 383 kts 323°
2026-05-07 11:15 -26.98007 -57.18412 37794 ft 383 kts 323°
2026-05-07 11:15 -26.93204 -57.21009 37792 ft 383 kts 323°
2026-05-07 11:16 -26.88408 -57.23611 37791 ft 383 kts 323°
2026-05-07 11:16 -26.83614 -57.26205 37788 ft 383 kts 323°
2026-05-07 11:17 -26.79357 -57.29422 37766 ft 356 kts 300°
2026-05-07 11:17 -26.78257 -57.31841 37734 ft 348 kts 285°
2026-05-07 11:17 -26.78002 -57.34534 37737 ft 352 kts 269°
2026-05-07 11:18 -26.78619 -57.37223 37739 ft 364 kts 254°
2026-05-07 11:18 -26.79655 -57.39814 37770 ft 365 kts 254°
2026-05-07 11:18 -26.80386 -57.42492 37764 ft 355 kts 266°
2026-05-07 11:18 -26.80464 -57.45220 37541 ft 350 kts 277°
2026-05-07 11:19 -26.79878 -57.47882 36571 ft 357 kts 291°
2026-05-07 11:19 -26.78600 -57.50256 35632 ft 369 kts 304°
2026-05-07 11:19 -26.76648 -57.52262 34657 ft 387 kts 318°
2026-05-07 11:19 -26.74160 -57.53603 33677 ft 412 kts 334°
2026-05-07 11:20 -26.71270 -57.54058 32520 ft 439 kts 349°
2026-05-07 11:20 -26.68185 -57.54047 31348 ft 447 kts 352°
2026-05-07 11:20 -26.65049 -57.54001 30199 ft 453 kts 354°
2026-05-07 11:20 -26.61878 -57.53941 28950 ft 458 kts 355°
2026-05-07 11:21 -26.58684 -57.53881 27656 ft 460 kts 355°
2026-05-07 11:21 -26.55480 -57.53828 26610 ft 458 kts 355°
2026-05-07 11:21 -26.52320 -57.53779 25857 ft 449 kts 355°
2026-05-07 11:21 -26.49219 -57.53740 25063 ft 441 kts 356°
2026-05-07 11:22 -26.46173 -57.53709 24261 ft 434 kts 356°
2026-05-07 11:22 -26.43171 -57.53684 23492 ft 428 kts 356°
2026-05-07 11:22 -26.40211 -57.53658 22638 ft 422 kts 357°
2026-05-07 11:22 -26.37287 -57.53630 21791 ft 418 kts 357°
2026-05-07 11:23 -26.34391 -57.53602 20956 ft 414 kts 357°
2026-05-07 11:23 -26.31524 -57.53577 20136 ft 411 kts 356°
2026-05-07 11:23 -26.28671 -57.53551 19353 ft 408 kts 356°
2026-05-07 11:23 -26.25839 -57.53523 18600 ft 406 kts 356°
2026-05-07 11:24 -26.23021 -57.53491 17892 ft 404 kts 356°
2026-05-07 11:24 -26.20224 -57.53459 17257 ft 399 kts 357°
2026-05-07 11:24 -26.17469 -57.53426 16664 ft 394 kts 357°
2026-05-07 11:24 -26.14739 -57.53395 16074 ft 390 kts 357°
2026-05-07 11:25 -26.12032 -57.53366 15486 ft 387 kts 357°
2026-05-07 11:25 -26.09390 -57.53336 14907 ft 383 kts 357°
2026-05-07 11:25 -26.06753 -57.53472 14338 ft 377 kts 352°
2026-05-07 11:25 -26.04161 -57.53752 13783 ft 372 kts 352°
2026-05-07 11:26 -26.01595 -57.54021 13186 ft 368 kts 352°
2026-05-07 11:26 -25.99098 -57.54279 12589 ft 353 kts 352°
2026-05-07 11:26 -25.96684 -57.54528 11701 ft 344 kts 352°
2026-05-07 11:26 -25.94333 -57.54771 10976 ft 332 kts 352°
2026-05-07 11:27 -25.92132 -57.54998 10827 ft 303 kts 352°
2026-05-07 11:27 -25.90115 -57.55202 10709 ft 279 kts 352°
2026-05-07 11:27 -25.88257 -57.55391 10592 ft 258 kts 352°
2026-05-07 11:27 -25.86522 -57.55569 10341 ft 244 kts 352°
2026-05-07 11:28 -25.84875 -57.55740 10093 ft 232 kts 352°
2026-05-07 11:28 -25.83293 -57.55909 9988 ft 228 kts 351°
2026-05-07 11:28 -25.81709 -57.56079 9917 ft 228 kts 352°
2026-05-07 11:28 -25.80128 -57.56248 9829 ft 228 kts 352°
2026-05-07 11:29 -25.78550 -57.56414 9610 ft 230 kts 352°
2026-05-07 11:29 -25.76956 -57.56580 9236 ft 230 kts 352°
2026-05-07 11:29 -25.75369 -57.56745 8979 ft 225 kts 352°
2026-05-07 11:29 -25.73829 -57.56905 8604 ft 226 kts 352°
2026-05-07 11:30 -25.72280 -57.57066 8371 ft 220 kts 352°
2026-05-07 11:30 -25.70765 -57.57222 8119 ft 217 kts 352°
2026-05-07 11:30 -25.69267 -57.57378 7823 ft 215 kts 352°
2026-05-07 11:30 -25.67780 -57.57532 7517 ft 214 kts 352°
2026-05-07 11:31 -25.66306 -57.57687 7207 ft 212 kts 352°
2026-05-07 11:31 -25.64841 -57.57840 6892 ft 210 kts 352°
2026-05-07 11:31 -25.63390 -57.57989 6594 ft 208 kts 352°
2026-05-07 11:31 -25.61954 -57.58135 6291 ft 206 kts 352°
2026-05-07 11:32 -25.59129 -57.58426 5685 ft 201 kts 352°
2026-05-07 11:32 -25.57755 -57.58568 5456 ft 194 kts 352°
2026-05-07 11:32 -25.56448 -57.58702 5326 ft 183 kts 352°
2026-05-07 11:33 -25.55198 -57.58831 5100 ft 178 kts 352°
2026-05-07 11:33 -25.53968 -57.58956 4781 ft 177 kts 354°
2026-05-07 11:33 -25.52741 -57.58903 4396 ft 177 kts
2026-05-07 11:33 -25.51520 -57.58618 4088 ft 180 kts
2026-05-07 11:34 -25.50304 -57.58318 3814 ft 178 kts
2026-05-07 11:34 -25.49100 -57.58024 3549 ft 176 kts
2026-05-07 11:34 -25.47908 -57.57733 3290 ft 175 kts
2026-05-07 11:34 -25.46728 -57.57446 3035 ft 172 kts
2026-05-07 11:35 -25.45567 -57.57164 2777 ft 170 kts
2026-05-07 11:35 -25.44422 -57.56886 2528 ft 167 kts
2026-05-07 11:35 -25.43294 -57.56611 2286 ft 165 kts
2026-05-07 11:35 -25.42194 -57.56343 2052 ft 162 kts 10°
2026-05-07 11:36 -25.41122 -57.56081 1955 ft 151 kts
2026-05-07 11:36 -25.40144 -57.55841 1950 ft 137 kts
2026-05-07 11:36 -25.39244 -57.55621 1953 ft 129 kts
2026-05-07 11:36 -25.38388 -57.55414 1950 ft 125 kts
2026-05-07 11:37 -25.37540 -57.55208 1953 ft 124 kts
2026-05-07 11:37 -25.36701 -57.55004 1971 ft 122 kts
2026-05-07 11:37 -25.35865 -57.54801 2042 ft 127 kts
2026-05-07 11:37 -25.34990 -57.54590 1997 ft 129 kts
2026-05-07 11:38 -25.34110 -57.54377 1966 ft 129 kts
2026-05-07 11:38 -25.33238 -57.54166 1922 ft 131 kts
2026-05-07 11:38 -25.32349 -57.53950 1731 ft 130 kts 10°
2026-05-07 11:38 -25.31468 -57.53736 1551 ft 129 kts 10°
2026-05-07 11:39 -25.30589 -57.53522 1352 ft 129 kts 10°
2026-05-07 11:39 -25.29711 -57.53308 1183 ft 132 kts 12°
2026-05-07 11:39 -25.28819 -57.53091 1004 ft 130 kts 11°
2026-05-07 11:39 -25.27920 -57.52885 795 ft 132 kts 12°
2026-05-07 11:40 -25.27036 -57.52672 622 ft 129 kts 16°
2026-05-07 11:40 -25.26170 -57.52447 457 ft 127 kts 15°
2026-05-07 11:40 -25.25309 -57.52235 312 ft 126 kts 15°
2026-05-07 11:40 -25.24547 -57.52051 294 ft 98 kts 13°
2026-05-07 11:41 -25.24047 -57.51928 285 ft 49 kts 12°
2026-05-07 11:41 -25.23847 -57.51881 278 ft 22 kts 12°
2026-05-07 11:41 -25.23727 -57.51844 275 ft 9 kts 335°
2026-05-07 11:41 -25.23753 -57.51860 275 ft 6 kts 186°
2026-05-07 11:42 -25.23800 -57.51868 277 ft 8 kts 191°
2026-05-07 11:42 -25.23859 -57.51882 281 ft 9 kts 193°
2026-05-07 11:42 -25.23927 -57.51901 280 ft 11 kts 192°
2026-05-07 11:42 -25.24008 -57.51919 282 ft 13 kts 192°
2026-05-07 11:43 -25.24101 -57.51941 284 ft 14 kts 192°
2026-05-07 11:43 -25.24191 -57.51963 285 ft 13 kts 192°
2026-05-07 11:43 -25.24259 -57.51923 286 ft 13 kts 109°
2026-05-07 11:43 -25.24282 -57.51815 284 ft 16 kts 102°
2026-05-07 11:44 -25.24307 -57.51691 284 ft 14 kts 102°
2026-05-07 11:44 -25.24328 -57.51652 286 ft 6 kts 144°
2026-05-07 11:44 -25.24368 -57.51628 284 ft 7 kts 156°
2026-05-07 11:44 -25.24414 -57.51610 285 ft 5 kts 165°
2026-05-07 11:45 -25.24418 -57.51609 285 ft 0 kts 166°